Other Surface Observations
Issued by NWS Charleston, SC

Current Version | Previous Version | Text Only | Print | Product List | Glossary On
Versions: 1 2 3 4 5 6 7 8 9 10 11 12 13 14 15 16 17 18 19 20 21 22 23 24 25 26 27 28 29 30 31 32 33 34 35 36 37 38 39 40 41 42 43 44 45 46 47 48 49 50
000
SXUS52 KCHS 241827
OSOCHS

MARINE OBSERVATIONS
NATIONAL WEATHER SERVICE CHARLESTON SC
200 PM EDT WED MAY 24 2017

...DOWNTOWN CHARLESTON AND HARBOR...

CITY           SKY/WX    TMP DP  RH WIND       PRES   REMARKS
WATERFRONT PRK   N/A     78  73  84 SW15G24   29.65F

...LAKE MOULTRIE...

CITY           SKY/WX    TMP DP  RH WIND       PRES   REMARKS
PINOPOLIS        N/A     81  72  74 S7G14     29.57F

...LAKE AND SUPPLEMENTAL COASTAL OBSERVATIONS...

STATION/POSITION TIME  TEMP    WIND        PRES    WAVE   SWELL
                       AIR SEA DIR/SP/G            HT/PER HT/PER/DIR
                 (UTC) (F)     (DEG/KT/KT) (MB)    (FT/S) (FT/S/D)
FORT PULASKI     1800   71     240/  9/ 15 1007.4
SAPELO ISLAND    1800   71     190/ 17     1006.0
WINYAH BAY       1730   80     210/ 14     1004.0S
LAKE MURRAY      1820   74     140/  9/ 17 1000.7
ACE BASIN NERRS  1745   74     190/  4     1006.0R


...C-MAN AND BUOY OBSERVATIONS...

STATION/POSITION TIME  TEMP    WIND        PRES    WAVE   SWELL
                       AIR SEA DIR/SP/G            HT/PER HT/PER/DIR
                 (UTC) (F)     (DEG/KT/KT) (MB)    (FT/S) (FT/S/D)
BUOY 41004       1810   78 77  210/ 17/ 21 1005.4
BUOY 41008       1750   72 78  190/ 19/ 23 1006.2F   4/ 5   2/ 90/12
FOLLY BEACH CMAN 1800   78     210/ 23/ 28 1005.9R
CAPERS NS BUOY   1808   80 77  220/ 19/ 29 1004.8R
FRIPP NS BUOY    1808   73 78  230/ 25/ 39 1006.2R
5E ST. MARYS GA  1800      78                N/A     3/ 6


STATION/POSITION TIME  TEMP    WIND        PRES    WAVE   SWELL
                       AIR SEA DIR/SP/G            HT/PER HT/PER/DIR
                 (UTC) (F)     (DEG/KT/KT) (MB)    (FT/S) (FT/S/D)
FRYING PAN BUOY  1810   78 77  210/ 17/ 23 1005.9
BUOY 41025       1750   74 75  210/  6/  8 1006.3F   5/ 8   5/190/ 8
CAPE LOOKOUT NC  1800   74     150/  6/  7 1005.3F
BUOY 41002       1750   78 76  200/ 21/ 25 1010.4S   8/ 8   2/ 60/11
BUOY 41010       1810   80 79  180/ 14/ 17 1009.0
ST AUGUSTINE FL  1800   76 77  210/ 13/ 15 1006.0F

$$




USA.gov is the U.S. government's official web portal to all federal, state and local government web resources and services.